Terug naar catalogus

FENGYUN 1C DEB

ActiefSSO
NORAD 31041·DEBRIS·🇨🇳 China

Gelanceerd May 10, 1999 vanaf Taiyuan Satellite Launch Center

Loading…

Volgende Passages (komende 24 uur)

TLE

VersSource: Space-Track

Epoch: Sep 13, 2026, 08:21 UTC

1 31041U 99025BEK 26256.34843774  .00002256  00000-0  10479-2 0  9993
2 31041  99.1913 300.1685 0084094 261.4240  97.7399 14.19879102993849

Volg FENGYUN 1C DEB in realtime met AllMySat

Download on the App Store